www.pogodaiklimat.ru

Погода и климат >> Архив погоды >> Малайзия >> Лабуан


ПОГОДА в Лабуане

  • Прогноз погоды в Лабуане
  • Монитор погоды в Лабуане

АРХИВ ПОГОДЫ в Лабуане

Время (UTC), дата Ветер
(напр.,м/с)
 
Видим.   Явления Облачность Т
(С)
Тd
(С)
f
(%)
Тe
(С)
Тes
(С)
Комфортность P
(гПа)
Po
(гПа)
Тmin
(С)
Tmax
(С)
R
(мм)
R24
(мм)
S
(см)
06 18.08 С 1 15 км мгла 9/3 420 м
[Cu Sc Ac trans Ci fib]
+32.1 +24.0 62 +44 +52 опасность
перегрева
1009.7 1006.4
09 18.08 СЗ 2 15 км мгла 8/3 420 м
[Cb cap Ac cuf Ci ing]
+30.5 +24.0 68 +42 +43 опасность
перегрева
1008.9 1005.6
12 18.08 штиль 0 20 км 9/3 420 м
[Cu Sc Ac trans Ci fib]
+28.7 +24.8 79 +41 +41 опасность
перегрева
1011.0 1007.7 +32.5
15 18.08 Ю 2 5000 м гроза, ливневой дождь 9/6 420 м
[Cb cap Ac trans Cs]
+26.7 +24.8 89 +38 +38 очень
душно
1012.2 1008.8
18 18.08 ЮЗ 2 7000 м гроза, ливневой дождь 10/6 300 м
[Cb cap Ac trans Cs]
+24.5 +23.3 93 +33 +33 очень
душно
1011.8 1008.4 31
21 18.08 ЮВ 1 15 км {гроза, дождь} 9/4 420 м
[Cu Sc Ac trans Cs]
+24.8 +23.2 91 +33 +33 очень
душно
1011.3 1007.9
00 19.08 Ю 1 25 км {дождь} 9/3 50 м
[Cu Sc Ac und Cs]
+26.5 +23.9 86 +37 +39 очень
душно
1011.1 1007.7 +24.1 31
03 19.08 ЮВ 2 25 км 9/3 420 м
[Cu Sc Ac lent Ci sp]
+29.8 +23.2 68 +40 +49 очень
душно
1010.4 1007.0
06 19.08 В 2 30 км 8/1 450 м
[Cu Sc Ac lent Ci sp]
+32.4 +21.0 51 +40 +50 очень
душно
1007.7 1004.3 0.2
09 19.08 З 2 30 км 9/1 450 м
[Cu Sc Ac lent Ci sp]
+31.4 +23.0 61 +42 +43 опасность
перегрева
1006.6 1003.3
12 19.08 З 1 25 км 9/1 450 м
[Cu Sc Ac lent Ci ing]
+28.3 +24.0 78 +39 +39 очень
душно
1009.5 1006.2 +32.8
15 19.08 штиль 0 20 км зарница 8/3 450 м
[Cb cap Ac trans Ci fib]
+27.0 +24.1 84 +37 +37 очень
душно
1011.0 1007.6
18 19.08 штиль 0 20 км зарница 9/3 420 м
[Cb cap Ac trans Cs]
+26.8 +24.3 86 +37 +37 очень
душно
1009.4 1006.1
21 19.08 Ю 1 9000 м гроза, ливневой дождь 10/4 300 м
[Cb cap Ac As Cs]
+24.9 +22.8 88 +33 +33 очень
душно
1009.9 1006.5
00 20.08 ЮВ 1 10 км слаб. ливневой дождь, в посл. час гроза 10/3 50 м
[Cu Sc Ac As Cs]
+26.1 +23.9 88 +36 +38 очень
душно
1011.6 1008.2 +24.8 1
03 20.08 ЮВ 2 30 км {дождь} 10/1 400 м
[Cu Sc Ac trans Cs]
+29.3 +24.4 75 +41 +51 опасность
перегрева
1010.7 1007.4
06 20.08 З 2 15 км мгла {дождь} 9/3 450 м
[Cu Sc Ac und Ci sp]
+30.9 +25.0 71 +44 +52 опасность
перегрева
1008.5 1005.2 0.0
09 20.08 З 3 14 км осадки на расстоянии 9/3 450 м
[Cb cap Ac und Ci sp]
+30.4 +24.7 72 +43 +44 опасность
перегрева
1008.0 1004.7
12 20.08 штиль 0 6000 м гроза, ливневой дождь 10/4 <50 м
[Cb cap Ac As Cs]
+24.9 +23.2 90 +33 +33 очень
душно
1010.5 1007.1 +31.7 14
15 20.08 В 1 10 км слаб. дождь {гроза} 10/1 360 м
[Cb cap As op Cs]
+26.1 +24.1 89 +36 +36 очень
душно
1010.9 1007.5
18 20.08 СВ 2 20 км {гроза, дождь} 9/1 360 м
[Cu Sc Ac trans Cs]
+25.7 +23.3 87 +35 +35 очень
душно
1008.2 1004.8 4
21 20.08 штиль 0 20 км 10/1 360 м
[Cu Sc Ac As Cs]
+25.2 +23.5 90 +34 +34 очень
душно
1008.8 1005.4
00 21.08 В 1 25 км 10/1 1000 м
[Cu Sc Ac und Cs]
+26.8 +23.8 84 +37 +39 очень
душно
1010.8 1007.4 +24.6 18
03 21.08 ЮВ 2 20 км мгла 9/1 450 м
[Cu med, cong Ac und Ci sp]
+29.6 +24.0 72 +41 +52 опасность
перегрева
1010.2 1006.9
06 21.08 С 1 28 км 9/3 360 м
[Cu Sc Ac lent Ci sp]
+30.3 +24.6 72 +43 +52 опасность
перегрева
1008.0 1004.7
09 21.08 СЗ 2 28 км 9/1 420 м
[Cu Sc Ac lent Ci fib]
+30.7 +24.0 68 +43 +44 опасность
перегрева
1007.5 1004.2
12 21.08 СЗ 1 20 км 9/1 480 м
[Cu med, cong Ac lent Ci fib]
+28.2 +23.6 76 +38 +38 очень
душно
1009.9 1006.5 +31.6
15 21.08 штиль 0 20 км 9/1 480 м
[Cu med, cong Ac lent Ci sp]
+27.3 +24.2 83 +38 +38 очень
душно
1011.4 1008.0
18 21.08 штиль 0 20 км зарница 9/3 480 м
[Cb cap Ac und Ci sp]
+26.0 +23.8 88 +36 +36 очень
душно
1010.4 1007.0
21 21.08 штиль 0 20 км 9/1 480 м
[Cu Sc Ac lent Ci sp]
+26.1 +24.1 89 +36 +36 очень
душно
1010.4 1007.0
00 22.08 штиль 0 20 км мгла 10/3 50 м
[Cu Sc Ac lent Cs]
+26.9 +23.6 82 +37 +39 очень
душно
1012.2 1008.8 +25.6
03 22.08 Ю 2 25 км мгла 9/3 360 м
[Cu Sc Ac lent Ci fib]
+30.7 +25.1 72 +44 +52 опасность
перегрева
1011.0 1007.7
06 22.08 З 2 25 км 9/4 420 м
[Cb cap Ac lent Ci fib]
+31.9 +24.7 66 +45 +52 опасность
перегрева
1009.1 1005.8
09 22.08 СЗ 2 25 км 9/4 420 м
[Cb cap Ac trans Ci fib]
+30.7 +24.2 68 +43 +44 опасность
перегрева
1008.9 1005.6
12 22.08 штиль 0 20 км 9/1 420 м
[Cu Sc Ac lent Ci fib]
+27.9 +24.0 79 +39 +39 очень
душно
1010.4 1007.0 +32.2
15 22.08 штиль 0 20 км 9/1 420 м
[Cu Sc Ac lent Cs]
+27.1 +24.2 84 +38 +38 очень
душно
1011.2 1007.8
18 22.08 З 1 20 км 9/3 360 м
[Cu Sc Ac trans Ci sp]
+27.3 +24.6 85 +39 +39 очень
душно
1010.3 1007.0
21 22.08 штиль 0 20 км 9/4 360 м
[Cu Sc Ac trans Ci sp]
+26.6 +24.5 88 +37 +37 очень
душно
1010.3 1007.0
00 23.08 Ю 1 25 км {гроза} 9/4 50 м
[Cu Sc Ac trans Cs]
+28.1 +24.5 81 +40 +41 очень
душно
1012.3 1008.9 +26.4
03 23.08 Ю 2 25 км 9/4 420 м
[Cu Sc Ac trans Cs]
+29.7 +24.2 72 +41 +49 опасность
перегрева
1011.9 1008.6
06 23.08 З 2 25 км 9/3 420 м
[Cu Sc Ac trans Ci fib]
+32.3 +23.2 59 +43 +50 опасность
перегрева
1009.4 1006.1
09 23.08 СЗ 2 25 км 9/3 420 м
[Cb calv Ac cuf Ci ing]
+30.4 +23.8 68 +42 +43 опасность
перегрева
1008.8 1005.5
12 23.08 штиль 0 20 км 8/3 450 м
[Cu Sc Ac lent Ci fib]
+27.7 +24.0 80 +38 +38 очень
душно
1010.1 1006.8 +32.6
15 23.08 штиль 0 20 км 9/3 450 м
[Cu Sc Ac trans Ci fib]
+26.5 +24.0 86 +37 +37 очень
душно
1011.1 1007.7
18 23.08 штиль 0 20 км 9/3 450 м
[Cu Sc Ac lent Ci fib]
+26.1 +23.9 88 +36 +36 очень
душно
1010.4 1007.0
21 23.08 ЮВ 2 20 км 9/3 420 м
[Cu Sc Ac trans Ci fib]
+26.7 +23.5 83 +36 +36 очень
душно
1009.8 1006.4
00 24.08 ЮВ 2 25 км осадки на расстоянии 9/4 420 м
[Cu Sc Ac trans Ci fib]
+27.6 +24.8 85 +39 +41 очень
душно
1011.6 1008.3 +25.3
03 24.08 Ю 1 25 км 9/3 420 м
[Cu Sc Ac lent Ci sp]
+29.8 +24.6 74 +42 +52 опасность
перегрева
1010.8 1007.5
06 24.08 З 2 25 км 9/3 420 м
[Cu Sc Ac lent Cs]
+32.0 +23.4 60 +43 +50 опасность
перегрева
1008.5 1005.2
09 24.08 З 3 25 км 9/1 420 м
[Cu Sc Ac lent Ci sp]
+30.5 +24.5 70 +43 +44 опасность
перегрева
1008.3 1005.0
12 24.08 штиль 0 20 км 9/1 420 м
[Cu Sc Ac trans Ci sp]
+28.0 +24.6 82 +40 +40 очень
душно
1009.8 1006.5 +32.1
15 24.08 штиль 0 20 км 8/1 420 м
[Cu Sc Ac trans Ci fib]
+26.7 +24.1 86 +37 +37 очень
душно
1011.0 1007.6
18 24.08 штиль 0 20 км 9/3 420 м
[Cu Sc Ac lent Cs]
+26.7 +23.9 85 +37 +37 очень
душно
1009.5 1006.1
21 24.08 ЮВ 1 20 км 9/4 420 м
[Cu Sc Ac lent Cs]
+27.1 +24.8 87 +39 +39 очень
душно
1009.1 1005.8
00 25.08 СЗ 2 20 км осадки на расстоянии 9/4 420 м
[Cb cap Ac lent Cs]
+27.1 +23.1 79 +36 +38 очень
душно
1011.2 1007.8 +26.5

 

Местоположение метеостанции Лабуан (Малайзия): широта 5.30 долгота 115.25 высота над уровнем моря 30 м.

В архиве по умолчанию представлена погода в Лабуане за последнюю неделю. Архивные данные за месяц целиком и за предыдущие месяцы, начиная с января 2011 года, Вы можете получить, выбрав интересующий диапазон дат из раскрывающегося списка и нажав кнопку "Ввод!".


*Определитесь, кто Вы:
робот инопланетянин человек

Внимание! Время в таблицах - всемирное. Для получения местного времени необходимо прибавить поправку, которая равна 8 ч.

Смотрите также архив погоды в соседних городах и на ближайших метеорологических станциях:

Погода в Брунее (Бруней) (54 км)
Погода в Кота-Кинабалу (Малайзия) (113 км)
Погода в Мири (Малайзия) (177 км)
Погода в Лонгбаване (Индонезия) (181 км)
Погода в Тавау (Малайзия) (313 км)
Погода в Сандакане (Малайзия) (318 км)
Погода в Таракане (Индонезия) (337 км)
Погода в Бинталу (Малайзия) (339 км)
Погода в Танджунгселоре (Индонезия) (357 км)
Погода в Танджунгредепе (Индонезия) (430 км)

Пояснения к столбцам:

Ветер - указаны скорость ветра в м/с - средняя за 10 мин, порывы в срок и между сроками (в фигурных скобках) и направление, откуда дует ветер: С - северный, СВ - северо-восточный, В - восточный, ЮВ - юго-восточный, Ю - южный, ЮЗ - юго-западный, З - западный, СЗ - северо-западный.
Видимость - горизонтальная дальность видимости в метрах или километрах. При видимости от 1 до 10 км при отсутствии осадков обычно наблюдается дымка, при ухудшении видимости до 1 км и менее - туман. В сухую погоду видимость может ухудшаться дымом, пылью или мглою.
Явления - указаны атмосферные явления, наблюдавшиеся в срок или в последний час перед сроком; фигурными скобками обозначены явления, наблюдавшиеся между сроками (за 1-3 часа до срока); квадратными скобками обозначены град или гололедные отложения с указанием их диаметра в мм.
Облачность - указаны через наклонную черту общая и нижняя облачность в баллах и высота нижней границы облаков в метрах; квадратными скобками обозначены формы облаков: Ci - перистые, Cs - перисто-слоистые, Cc - перисто-кучевые, Ac - высококучевые, As - высокослоистые, Sc - слоисто-кучевые, Ns - слоисто-дождевые, Cu - кучевые, Cb - кучево-дождевые. Подробнее классификацию облаков см. в Атласе облаков (PDF).
T - Температура воздуха - температура, измеренная на высоте 2 м над землей.
Td - Температура точки росы - температура, при понижении до которой содержащийся в воздухе водяной пар достигнет насыщения.
f - Относительная влажность воздуха - влажноcть воздуха, измеренная на высоте 2 м над землей.
Te - Эффективная температура - температура, которую ощущает одетый по сезону человек в тени. Характеристика душности погоды. При расчете учитывается влияние влажности воздуха и скорости ветра на теплоощущения человека.
Tes - Эффективная температура на солнце - температура, которую ощущает человек, с поправкой на солнечный нагрев. Характеристика знойности погоды. Зависит от высоты солнца над горизонтом, облачности и скорости ветра. Ночью, в пасмурную погоду, а также при ветре 12 м/с и более поправка равна нулю.
P - Атмосферное давление - приведенное к уровню моря атмосферное давление.
Po - Атмосферное давление - измеренное на уровне метеостанции атмосферное давление.
Tmin - Минимальная температура - минимум температуры воздуха на высоте 2 м над землей.
Tmax - Максимальная температура - максимум температуры воздуха на высоте 2 м над землей.
R - Количество осадков - Количество выпавших осадков за период времени, мм. При наведении курсора мыши на число - период времени, за который выпало указанное количество осадков.
R24 - Количество осадков - Количество выпавших осадков за 24 часа, мм.
S - Снежный покров - Высота снежного покрова, см. При наведении курсора мыши на число - состояние снежного покрова и степень покрытия местности в баллах.